Regional Weather Roundup
Issued by NWS Green Bay, WI

Home | Current Version | Previous Version | Graphics & Text | Print | Product List | Glossary Off
Versions: 1 2 3 4 5 6 7 8 9 10 11 12 13 14 15 16 17 18 19 20 21 22 23 24 25 26 27 28 29 30 31 32 33 34 35 36 37 38 39 40 41 42 43 44 45 46 47 48 49 50

000
ASUS43 KGRB 240011
RWRGRB

NORTH-CENTRAL AND NORTHEAST WISCONSIN REGIONAL WEATHER ROUNDUP
NATIONAL WEATHER SERVICE GREEN BAY WI
700 PM CDT MON MAY 23 2016

WIZ005-009-010>012-018-019-240100-
NORTH CENTRAL WISCONSIN

CITY           SKY/WX    TMP DP  RH WIND       PRES   REMARKS
IRONWOOD       CLOUDY    66  63  88 S5        29.76S
MANITOWISH WTR CLOUDY    69  58  67 W3        29.80R
ARBOR VITAE    PTSUNNY   79  46  31 SW10      29.81R
EAGLE RIVER      N/A     79  37  22 SW12G18   29.81S
LAND O LAKES   CLOUDY    80  40  24 SW10G22   29.82R
RHINELANDER    PTSUNNY   79  43  27 SW13G26   29.83S
PHILLIPS       CLOUDY    77  53  42 SW9G17    29.79R
ANTIGO         CLOUDY    78  44  30 S17       29.84S
TOMAHAWK       MOSUNNY   76  45  33 S6        29.82R
MERRILL        MOSUNNY   79  46  31 SW12G17   29.83R
$$

WIZ013-073-240100-
NORTHEAST WISCONSIN

CITY           SKY/WX    TMP DP  RH WIND       PRES   REMARKS
IRON MOUNTAIN  CLOUDY    81  43  26 S17G23    29.80R
MARINETTE      SUNNY     70  46  42 S12       29.85S
OCONTO         SUNNY     72  49  44 S10G17    29.84S
$$

WIZ017-030-035>037-045-240100-
CENTRAL WISCONSIN

CITY           SKY/WX    TMP DP  RH WIND       PRES   REMARKS
MEDFORD        PTSUNNY   78  49  34 S18G24    29.82R
WAUSAU         CLOUDY    82  43  25 S23       29.81S
MOSINEE        SUNNY     79  41  25 S17G26    29.84
MARSHFIELD     CLOUDY    78  45  30 S12       29.82S
WISC RAPIDS    CLOUDY    80  43  26 SW15G26   29.85R
STEVENS POINT  CLOUDY    79  43  27 S16G22    29.84S
WAUPACA        SUNNY     81  43  25 S10       29.84S
SHAWANO        CLOUDY    83  42  23 S8        29.84R
CLINTONVILLE   SUNNY     81  41  24 SW10G17   29.84R
WAUTOMA        CLOUDY    81  46  29 S7        29.85S
$$

WIZ038-039-048-051-240100-
FOX VALLEY

CITY           SKY/WX    TMP DP  RH WIND       PRES   REMARKS
NWS GREEN BAY  SUNNY     77  47  34 S16       29.85F
APPLETON       MOSUNNY   81  39  22 S14G22    29.85S
OSHKOSH        SUNNY     80  44  27 S13       29.86S
FOND DU LAC    SUNNY     80  45  28 S9        29.87S
$$

WIZ022-050-052-240100-
EAST CENTRAL WISCONSIN

CITY           SKY/WX    TMP DP  RH WIND       PRES   REMARKS
EPHRAIM        FAIR      66  36  33 S13G22    29.87S
STURGEON BAY   NOT AVBL
MANITOWOC      SUNNY     67  38  34 S17       29.90F
SHEBOYGAN      SUNNY     70  40  33 S14G21    29.91F
$$

LMZ563-521-522-541>543-240100-
LAKESHORE

STATION/POSITION TIME  TEMP    WIND        PRES    VSBY  WAVE
                       AIR SEA DIR/SP/G                  HT/PER
                 (UTC) (F)     (DEG/KT/KT) (MB)    (MI)  (FT/S)
SHEBOYGAN LKSHOR 0000   58     180/ 19/ 19 1013.1F
KEWAUNEE LKSHORE 2300   54                 1012.3F
NORTHPORT PIER   0000   64     160/ 11/ 22 1011.5F
N MID LAKE BUOY  2250   52 45  200/ 16/ 17 1012.3          2/ 4
CHAMBERS ISLAND  2300   70     140/  8/ 16 1010.8F
MENOMINEE LKSHOR 2300   62                 1009.7F
$$



USA.gov is the U.S. government's official web portal to all federal, state and local government web resources and services.